Weather History for Thermal, CA

Change the Weather History Date:

Tuesday, February 12, 2013

  Actual Average Record
Temperature  
Mean Temperature 49 °F 57 °F  
Max Temperature 69 °F 74 °F 91 °F (1971)
Min Temperature 29 °F 41 °F 26 °F (1965)
Degree Days  
Heating Degree Days 16 8  
Month to date heating degree days 99 103  
Since 1 July heating degree days 926 963  
Cooling Degree Days 0 0  
Month to date cooling degree days 0 0  
Year to date cooling degree days 0 2  
Moisture  
Dew Point 18 °F    
Average Humidity 34    
Maximum Humidity 58    
Minimum Humidity 9    
Precipitation  
Precipitation 0.00 in 0.03 in 0.82 in (1992)
Month to date precipitation T 0.25  
Year to date precipitation 0.37 0.92  
Since 1 July precipitation 2.55 2.30  
Snow  
Snow 0.00 in - - ()
Month to date snowfall 0.0  
Year to date snowfall 0.0  
Since 1 July snowfall 0.0  
Snow Depth 0.00 in    
Sea Level Pressure  
Sea Level Pressure 30.25 in    
Wind  
Wind Speed 2 mph (NNW)    
Max Wind Speed 12 mph    
Max Gust Speed 15 mph    
Visibility 10 miles    
Events      
T = Trace of Precipitation, MM = Missing Value Source: NWS Daily Summary

Daily Weather History Graph

Daily Weather History Graph

Search for Another Location

Airport:

Trip Planner

Search our weather history database for the weather conditions in past years. The results will help you decide how hot, cold, wet, or windy it might be!

Date:

Astronomy

Feb. 12, 2013 Rise Set
Actual Time 6:31 AM PST 5:26 PM PST
Civil Twilight 6:05 AM PST 5:52 PM PST
Nautical Twilight 5:36 AM PST 6:21 PM PST
Astronomical Twilight 5:07 AM PST 6:50 PM PST
Moon 7:41 AM PST (2/12) 8:19 PM PST (2/12)
Length of Visible Light 11h 46m
Length of Day
10h 55m
Waxing Crescent, 8% of the Moon is Illuminated
Feb 12
Waxing Crescent
Feb 17
First Quarter
Feb 25
Full
Mar 4
Last Quarter
Mar 11
New

Hourly Weather History & Observations

Time (PST) Temp. Windchill Dew Point Humidity Pressure Visibility Wind Dir Wind Speed Gust Speed Precip Events Conditions
12:52 AM 41.0 °F 38.0 °F 10.9 °F 29% 30.23 in 10.0 mi North 4.6 mph - N/A   Clear
1:52 AM 37.0 °F - 12.9 °F 37% 30.22 in 10.0 mi Calm Calm - N/A   Clear
2:52 AM 32.0 °F - 14.0 °F 48% 30.23 in 10.0 mi Calm Calm - N/A   Clear
3:52 AM 34.0 °F - 15.1 °F 46% 30.23 in 10.0 mi Calm Calm - N/A   Clear
4:52 AM 30.9 °F 27.5 °F 15.1 °F 52% 30.25 in 10.0 mi North 3.5 mph - N/A   Clear
5:52 AM 33.1 °F 28.7 °F 15.1 °F 48% 30.28 in 10.0 mi North 4.6 mph - N/A   Clear
6:52 AM 28.9 °F - 16.0 °F 58% 30.30 in 10.0 mi Calm Calm - N/A   Clear
7:52 AM 42.1 °F - 19.0 °F 40% 30.33 in 10.0 mi Calm Calm - N/A   Clear
8:52 AM 52.0 °F - 21.9 °F 31% 30.33 in 10.0 mi WNW 3.5 mph - N/A   Clear
9:52 AM 61.0 °F - 12.0 °F 15% 30.32 in 10.0 mi NW 3.5 mph - N/A   Clear
10:52 AM 63.0 °F - 9.0 °F 12% 30.31 in 10.0 mi Calm Calm - N/A   Clear
11:52 AM 66.0 °F - 10.0 °F 11% 30.28 in 10.0 mi NNW 4.6 mph - N/A   Clear
12:52 PM 66.0 °F - 10.0 °F 11% 30.25 in 10.0 mi Calm Calm - N/A   Clear
1:52 PM 66.9 °F - 9.0 °F 10% 30.22 in 10.0 mi Calm Calm - N/A   Clear
2:52 PM 68.0 °F - 9.0 °F 10% 30.20 in 10.0 mi Variable 3.5 mph - N/A   Clear
3:52 PM 68.0 °F - 9.0 °F 10% 30.19 in 10.0 mi West 5.8 mph - N/A   Clear
4:52 PM 64.9 °F - 21.0 °F 19% 30.19 in 10.0 mi SE 6.9 mph - N/A   Clear
5:52 PM 54.0 °F - 30.9 °F 41% 30.20 in 10.0 mi SE 5.8 mph - N/A   Clear
6:52 PM 51.1 °F - 25.0 °F 36% 30.22 in 10.0 mi ESE 5.8 mph - N/A   Clear
7:52 PM 46.9 °F - 30.9 °F 54% 30.23 in 10.0 mi WSW 8.1 mph - N/A   Clear
8:52 PM 44.1 °F - 30.0 °F 58% 30.25 in 10.0 mi Calm Calm - N/A   Clear
9:52 PM 43.0 °F 41.3 °F 28.9 °F 58% 30.26 in 10.0 mi NW 3.5 mph - N/A   Clear
10:52 PM 37.9 °F - 27.0 °F 65% 30.25 in 10.0 mi Calm Calm - N/A   Clear
11:52 PM 37.9 °F 33.5 °F 27.0 °F 65% 30.25 in 10.0 mi NW 5.8 mph - N/A   Clear